DIRECTV 5 (TEMPO 1)

Last updated on Tue Sep 22 2026 00:03:10 GMT+0000 (Coordinated Universal Time)

1 27426U 02023A 26264.56469595 -.00000058 00000+0 00000+0 0 9999 2 27426 5.1169 74.0580 0003213 97.0907 282.5081 1.00272158 89098
UTC large
Height (km)
Speed (km/s)
/
Latitude / Longitude
Inclination (degrees)
Orbital Period (minutes)
Azimuth
Elevation
Range (km)
Doppler Factor

Next 0 passes for location: London (51.5072 / 0.1276)

No passes found over London.
DIRECTV 5 (TEMPO 1)